Weather History for Pasco, WA

Change the Weather History Date:

Wednesday, May 1, 2013

  Actual Average Record
Temperature  
Mean Temperature 47 °F 56 °F  
Max Temperature 66 °F 72 °F 95 °F (1998)
Min Temperature 28 °F 41 °F 28 °F (2013)
Degree Days  
Heating Degree Days 18 9  
Month to date heating degree days 18 9  
Since 1 July heating degree days 4583 4833  
Cooling Degree Days 0 0  
Month to date cooling degree days 0 0  
Year to date cooling degree days 0 1  
Moisture  
Dew Point 27 °F    
Average Humidity 53    
Maximum Humidity 92    
Minimum Humidity 13    
Precipitation  
Precipitation 0.00 in 0.02 in 0.21 in (1950)
Month to date precipitation 0.00 0.02  
Year to date precipitation 1.26 3.54  
Snow  
Snow 0.00 in - - ()
Snow Depth 0.00 in    
Sea Level Pressure  
Sea Level Pressure 30.54 in    
Wind  
Wind Speed 2 mph (NNE)    
Max Wind Speed 9 mph    
Max Gust Speed 14 mph    
Visibility 10 miles    
Events      
T = Trace of Precipitation, MM = Missing Value Source: NWS Daily Summary

Daily Weather History Graph

Daily Weather History Graph

Search for Another Location

Airport:

Trip Planner

Search our weather history database for the weather conditions in past years. The results will help you decide how hot, cold, wet, or windy it might be!

Date:

Astronomy

May. 01, 2013 Rise Set
Actual Time 5:42 AM PDT 8:05 PM PDT
Civil Twilight 5:08 AM PDT 8:39 PM PDT
Nautical Twilight 4:27 AM PDT 9:20 PM PDT
Astronomical Twilight 3:40 AM PDT 10:08 PM PDT
Moon 1:19 AM PDT (5/1) 11:26 AM PDT (5/1)
Length of Visible Light 15h 30m
Length of Day
14h 23m
Waning Gibbous, 58% of the Moon is Illuminated
May 1
Waning Gibbous
May 2
Last Quarter
May 9
New
May 17
First Quarter
May 24
Full

Hourly Weather History & Observations

Time (PDT) Temp. Windchill Dew Point Humidity Pressure Visibility Wind Dir Wind Speed Gust Speed Precip Events Conditions
12:53 AM 34.0 °F - 28.0 °F 79% 30.41 in 10.0 mi Calm Calm - N/A   Clear
1:53 AM 37.9 °F - 26.1 °F 62% 30.43 in 10.0 mi Calm Calm - N/A   Clear
2:53 AM 32.0 °F - 27.0 °F 82% 30.44 in 10.0 mi Calm Calm - N/A   Clear
3:53 AM 33.1 °F - 26.1 °F 75% 30.47 in 10.0 mi Calm Calm - N/A   Clear
4:53 AM 33.1 °F 30.0 °F 27.0 °F 78% 30.49 in 10.0 mi ESE 3.5 mph - N/A   Clear
6:53 AM 33.1 °F - 28.0 °F 82% 30.54 in 10.0 mi Calm Calm - N/A   Clear
7:53 AM 42.1 °F 39.2 °F 32.0 °F 67% 30.57 in 10.0 mi SE 4.6 mph - N/A   Clear
8:53 AM 46.9 °F - 28.9 °F 50% 30.58 in 10.0 mi Calm Calm - N/A   Clear
9:53 AM 52.0 °F - 27.0 °F 38% 30.59 in 10.0 mi ENE 4.6 mph - N/A   Clear
10:53 AM 55.9 °F - 25.0 °F 30% 30.59 in 10.0 mi Variable 3.5 mph - N/A   Clear
11:53 AM 57.9 °F - 21.9 °F 25% 30.58 in 10.0 mi Calm Calm - N/A   Clear
12:53 PM 62.1 °F - 27.0 °F 26% 30.58 in 10.0 mi Variable 4.6 mph - N/A   Clear
1:53 PM 63.0 °F - 25.0 °F 24% 30.57 in 10.0 mi NW 5.8 mph - N/A   Clear
2:53 PM 66.0 °F - 24.1 °F 20% 30.56 in 10.0 mi Variable 4.6 mph - N/A   Clear
3:53 PM 64.0 °F - 12.0 °F 13% 30.55 in 10.0 mi SE 4.6 mph - N/A   Clear
4:53 PM 64.0 °F - 21.0 °F 19% 30.55 in 10.0 mi Calm Calm - N/A   Clear
5:53 PM 64.9 °F - 24.1 °F 21% 30.54 in 10.0 mi NNW 3.5 mph - N/A   Clear
6:53 PM 63.0 °F - 32.0 °F 31% 30.53 in 10.0 mi NNW 3.5 mph - N/A   Clear
7:53 PM 55.9 °F - 32.0 °F 40% 30.54 in 10.0 mi NNE 3.5 mph - N/A   Clear
8:53 PM 50.0 °F - 32.0 °F 50% 30.55 in 10.0 mi North 3.5 mph - N/A   Clear
9:53 PM 45.0 °F - 34.0 °F 65% 30.57 in 10.0 mi Calm Calm - N/A   Clear
10:53 PM 39.9 °F 36.7 °F 34.0 °F 79% 30.58 in 10.0 mi NNW 4.6 mph - N/A   Clear
11:53 PM 37.0 °F 34.5 °F 32.0 °F 82% 30.58 in 10.0 mi NE 3.5 mph - N/A   Unknown